TimeGMT,TemperatureF,Dew PointF,Humidity,Sea Level PressureIn,VisibilityMPH,Wind Direction,Wind SpeedMPH,Gust SpeedMPH,PrecipitationIn,Events,Conditions,WindDirDegrees,DateUTC
12:00 AM,44,41,87,29.51,12,West,6.7,,,Rain,Light Rain Showers,270,2013-11-03 00:00:00
12:00 AM,44.6,41.0,87,29.50,6.2,West,5.8,-,N/A,Rain,Light Rain Showers,270,2013-11-03 00:00:00
12:30 AM,42.8,41.0,93,29.50,5.0,WNW,18.4,32.2,N/A,Rain,Light Rain Showers,290,2013-11-03 00:30:00
1:00 AM,44.6,41.0,87,29.50,6.2,West,15.0,-,N/A,,Mostly Cloudy,260,2013-11-03 01:00:00
1:30 AM,44.6,41.0,87,29.50,6.2,WSW,18.4,-,N/A,,Scattered Clouds,250,2013-11-03 01:30:00
2:00 AM,46.4,41.0,81,29.50,6.2,WSW,16.1,-,N/A,,Mostly Cloudy,250,2013-11-03 02:00:00
3:00 AM,46.4,42.8,87,29.50,6.2,WSW,11.5,-,N/A,,Mostly Cloudy,250,2013-11-03 03:00:00
3:30 AM,46.4,42.8,87,29.53,6.2,WSW,18.4,-,N/A,,Mostly Cloudy,250,2013-11-03 03:30:00
4:00 AM,46.4,41.0,81,29.53,6.2,WSW,17.3,-,N/A,,Mostly Cloudy,240,2013-11-03 04:00:00
4:30 AM,46.4,41.0,81,29.53,6.2,WSW,17.3,-,N/A,Rain,Light Rain Showers,250,2013-11-03 04:30:00
5:00 AM,48.2,39.2,71,29.53,6.2,WSW,21.9,-,N/A,,Scattered Clouds,250,2013-11-03 05:00:00
5:30 AM,44.6,39.2,81,29.53,3.7,WSW,25.3,38.0,N/A,Rain,Light Rain Showers,250,2013-11-03 05:30:00
6:00 AM,44,40,81,29.56,6,West,15.7,,,Rain,Light Rain Showers,280,2013-11-03 06:00:00
6:00 AM,44.6,41.0,87,29.53,6.2,West,16.1,-,N/A,Rain,Light Rain Showers,280,2013-11-03 06:00:00
6:30 AM,46.4,42.8,87,29.56,6.2,WSW,13.8,-,N/A,,Partly Cloudy,250,2013-11-03 06:30:00
7:00 AM,46.4,42.8,87,29.56,6.2,WSW,19.6,-,N/A,Rain,Light Rain Showers,240,2013-11-03 07:00:00
7:30 AM,44.6,41.0,87,29.53,6.2,SW,12.7,-,N/A,,Scattered Clouds,220,2013-11-03 07:30:00
8:00 AM,44.6,41.0,87,29.56,6.2,West,13.8,-,N/A,,Mostly Cloudy,260,2013-11-03 08:00:00
8:30 AM,46.4,41.0,81,29.56,6.2,WSW,16.1,-,N/A,Rain,Light Rain Showers,250,2013-11-03 08:30:00
9:00 AM,44.6,41.0,87,29.56,6.2,SW,16.1,-,N/A,,Scattered Clouds,230,2013-11-03 09:00:00
9:30 AM,48.2,42.8,82,29.56,6.2,SW,15.0,-,N/A,,Scattered Clouds,230,2013-11-03 09:30:00
10:00 AM,48.2,41.0,76,29.56,6.2,WSW,13.8,-,N/A,,Scattered Clouds,240,2013-11-03 10:00:00
10:30 AM,46.4,42.8,87,29.53,6.2,SSW,13.8,-,N/A,,Scattered Clouds,200,2013-11-03 10:30:00
11:00 AM,46.4,42.8,87,29.53,6.2,SSW,11.5,-,N/A,,Mostly Cloudy,200,2013-11-03 11:00:00
11:30 AM,48.2,42.8,82,29.50,6.2,SSW,9.2,-,N/A,,Mostly Cloudy,210,2013-11-03 11:30:00
12:00 PM,47,42,78,29.52,25,South,8.9,,,,Partly Cloudy,180,2013-11-03 12:00:00
12:00 PM,48.2,42.8,82,29.50,6.2,South,9.2,-,N/A,,Mostly Cloudy,180,2013-11-03 12:00:00
12:30 PM,48.2,42.8,82,29.47,6.2,SE,8.1,-,N/A,,Mostly Cloudy,130,2013-11-03 12:30:00
1:00 PM,48.2,42.8,82,29.44,6.2,ESE,9.2,-,N/A,,Mostly Cloudy,120,2013-11-03 13:00:00
1:30 PM,48.2,44.6,87,29.42,6.2,ESE,10.4,-,N/A,,Mostly Cloudy,120,2013-11-03 13:30:00
2:00 PM,48.2,42.8,82,29.39,6.2,ESE,10.4,-,N/A,,Mostly Cloudy,120,2013-11-03 14:00:00
2:30 PM,48.2,42.8,82,29.36,6.2,ESE,8.1,-,N/A,,Mostly Cloudy,120,2013-11-03 14:30:00
3:00 PM,48.2,42.8,82,29.36,6.2,East,8.1,-,N/A,,Mostly Cloudy,100,2013-11-03 15:00:00
3:30 PM,48.2,42.8,82,29.33,6.2,East,8.1,-,N/A,,Mostly Cloudy,90,2013-11-03 15:30:00
4:00 PM,48.2,42.8,82,29.30,6.2,ENE,9.2,-,N/A,,Mostly Cloudy,70,2013-11-03 16:00:00
4:30 PM,46.4,42.8,87,29.30,6.2,ENE,8.1,-,N/A,,Mostly Cloudy,70,2013-11-03 16:30:00
5:00 PM,46.4,41.0,81,29.30,6.2,ENE,6.9,-,N/A,,Mostly Cloudy,70,2013-11-03 17:00:00
5:30 PM,46.4,41.0,81,29.27,6.2,NE,6.9,-,N/A,,Mostly Cloudy,50,2013-11-03 17:30:00
6:00 PM,46,41,77,29.28,12,NE,8.9,,,Rain,Light Rain,50,2013-11-03 18:00:00
6:00 PM,46.4,41.0,81,29.27,6.2,NE,9.2,-,N/A,Rain,Light Rain,50,2013-11-03 18:00:00
6:30 PM,46.4,41.0,81,29.27,6.2,NE,8.1,-,N/A,Rain,Light Rain,40,2013-11-03 18:30:00
7:00 PM,44.6,41.0,87,29.27,6.2,NNE,8.1,-,N/A,,Mostly Cloudy,30,2013-11-03 19:00:00
7:30 PM,44.6,41.0,87,29.27,6.2,NNE,6.9,-,N/A,,Mostly Cloudy,20,2013-11-03 19:30:00
8:00 PM,44.6,42.8,93,29.27,6.2,North,6.9,-,N/A,,Mostly Cloudy,10,2013-11-03 20:00:00
8:30 PM,44.6,41.0,87,29.27,6.2,North,8.1,-,N/A,,Mostly Cloudy,10,2013-11-03 20:30:00
9:00 PM,42.8,41.0,93,29.27,6.2,NNE,4.6,-,N/A,,Mostly Cloudy,20,2013-11-03 21:00:00
9:30 PM,42.8,39.2,87,29.30,6.2,NNE,4.6,-,N/A,,Mostly Cloudy,20,2013-11-03 21:30:00
10:00 PM,41.0,39.2,93,29.30,6.2,NNW,5.8,-,N/A,,Mostly Cloudy,340,2013-11-03 22:00:00
10:30 PM,41.0,39.2,93,29.30,6.2,North,6.9,-,N/A,,Mostly Cloudy,350,2013-11-03 22:30:00
11:00 PM,39.2,39.2,100,29.33,6.2,NNW,5.8,-,N/A,,Mostly Cloudy,330,2013-11-03 23:00:00
11:30 PM,39.2,39.2,100,29.33,6.2,NNW,8.1,-,N/A,,Mostly Cloudy,330,2013-11-03 23:30:00